Time,TemperatureF,DewpointF,PressureIn,WindDirection,WindDirectionDegrees,WindSpeedMPH,WindSpeedGustMPH,Humidity,HourlyPrecipIn,Conditions,Clouds,dailyrainin,SoftwareType,DateUTC
2013-03-08 00:02:00,50.9,26.2,30.06,East,90,7.6,8.7,38,0.00,,---,0.00,VWS V14.01,2013-03-08 06:02:00,
2013-03-08 00:07:00,50.9,26.2,30.06,ESE,112,4.0,6.0,38,0.00,,---,0.00,VWS V14.01,2013-03-08 06:07:00,
2013-03-08 00:12:00,50.7,26.0,30.06,SSE,158,8.7,8.7,38,0.00,,---,0.00,VWS V14.01,2013-03-08 06:12:00,
2013-03-08 00:17:00,50.5,26.5,30.06,South,180,6.5,6.5,39,0.00,,---,0.00,VWS V14.01,2013-03-08 06:17:00,
2013-03-08 00:23:00,50.4,26.4,30.06,ESE,112,6.9,7.4,39,0.00,,---,0.00,VWS V14.01,2013-03-08 06:23:00,
2013-03-08 00:28:00,50.2,26.2,30.09,South,180,5.4,5.4,39,0.00,,---,0.00,VWS V14.01,2013-03-08 06:28:00,
2013-03-08 00:33:00,50.2,26.2,30.09,SSE,158,4.3,6.9,39,0.00,,---,0.00,VWS V14.01,2013-03-08 06:33:00,
2013-03-08 00:38:00,50.2,26.2,30.09,SSW,202,4.0,6.5,39,0.00,,---,0.00,VWS V14.01,2013-03-08 06:38:00,
2013-03-08 00:44:00,49.8,26.5,30.09,SSE,158,2.7,6.5,40,0.00,,---,0.00,VWS V14.01,2013-03-08 06:44:00,
2013-03-08 00:49:00,49.8,26.5,30.09,SSE,158,4.0,10.7,40,0.00,,---,0.00,VWS V14.01,2013-03-08 06:49:00,
2013-03-08 00:54:00,49.8,26.5,30.09,SE,135,5.6,8.1,40,0.00,,---,0.00,VWS V14.01,2013-03-08 06:54:00,
2013-03-08 00:59:00,49.5,26.2,30.09,South,180,5.6,8.7,40,0.00,,---,0.00,VWS V14.01,2013-03-08 06:59:00,
2013-03-08 01:04:00,49.5,26.2,30.09,SE,135,4.9,4.9,40,0.00,,---,0.00,VWS V14.01,2013-03-08 07:04:00,
2013-03-08 01:10:00,49.3,26.0,30.09,SSW,202,7.8,7.8,40,0.00,,---,0.00,VWS V14.01,2013-03-08 07:10:00,
2013-03-08 01:15:00,49.1,26.4,30.09,SE,135,3.1,6.0,41,0.00,,---,0.00,VWS V14.01,2013-03-08 07:15:00,
2013-03-08 01:20:00,48.9,26.3,30.09,ESE,112,2.9,5.4,41,0.00,,---,0.00,VWS V14.01,2013-03-08 07:20:00,
2013-03-08 01:25:00,48.9,26.3,30.09,East,90,6.3,6.3,41,0.00,,---,0.00,VWS V14.01,2013-03-08 07:25:00,
2013-03-08 01:31:00,48.7,26.1,30.09,SE,135,6.3,8.1,41,0.00,,---,0.00,VWS V14.01,2013-03-08 07:31:00,
2013-03-08 01:36:00,48.6,26.0,30.09,SSE,158,6.0,8.1,41,0.00,,---,0.00,VWS V14.01,2013-03-08 07:36:00,
2013-03-08 01:42:00,48.6,26.0,30.09,SSW,202,7.8,7.8,41,0.00,,---,0.00,VWS V14.01,2013-03-08 07:42:00,
2013-03-08 01:48:00,48.6,26.0,30.09,South,180,6.5,11.4,41,0.00,,---,0.00,VWS V14.01,2013-03-08 07:48:00,
2013-03-08 01:53:00,48.4,26.4,30.09,ESE,112,5.4,6.0,42,0.00,,---,0.00,VWS V14.01,2013-03-08 07:53:00,
2013-03-08 01:59:00,48.2,26.2,30.09,SE,135,3.4,6.0,42,0.00,,---,0.00,VWS V14.01,2013-03-08 07:59:00,
2013-03-08 02:04:00,48.0,26.0,30.09,ESE,112,4.3,8.1,42,0.00,,---,0.00,VWS V14.01,2013-03-08 08:04:00,
2013-03-08 02:10:00,48.0,26.0,30.09,SSE,158,9.8,9.8,42,0.00,,---,0.00,VWS V14.01,2013-03-08 08:10:00,
2013-03-08 02:16:00,47.8,26.4,30.09,SE,135,2.7,7.8,43,0.00,,---,0.00,VWS V14.01,2013-03-08 08:16:00,
2013-03-08 02:21:00,47.7,26.3,30.09,SSE,158,6.0,6.5,43,0.00,,---,0.00,VWS V14.01,2013-03-08 08:21:00,
2013-03-08 02:27:00,47.5,26.1,30.09,SE,135,8.5,8.7,43,0.00,,---,0.00,VWS V14.01,2013-03-08 08:27:00,
2013-03-08 02:32:00,47.5,26.1,30.09,SE,135,4.7,7.4,43,0.00,,---,0.00,VWS V14.01,2013-03-08 08:32:00,
2013-03-08 02:37:00,47.3,26.5,30.09,SE,135,5.4,7.2,44,0.00,,---,0.00,VWS V14.01,2013-03-08 08:37:00,
2013-03-08 02:42:00,47.1,26.3,30.09,SSE,158,7.8,10.1,44,0.00,,---,0.00,VWS V14.01,2013-03-08 08:42:00,
2013-03-08 02:48:00,46.9,26.2,30.09,SE,135,10.7,10.7,44,0.00,,---,0.00,VWS V14.01,2013-03-08 08:48:00,
2013-03-08 02:53:00,46.6,26.4,30.09,SSE,158,8.1,8.1,45,0.00,,---,0.00,VWS V14.01,2013-03-08 08:53:00,
2013-03-08 02:58:00,46.4,26.2,30.09,SE,135,6.0,6.0,45,0.00,,---,0.00,VWS V14.01,2013-03-08 08:58:00,
2013-03-08 03:03:00,46.4,26.2,30.09,SSE,158,4.9,6.0,45,0.00,,---,0.00,VWS V14.01,2013-03-08 09:03:00,
2013-03-08 03:09:00,46.2,26.6,30.09,ESE,112,6.0,10.1,46,0.00,,---,0.00,VWS V14.01,2013-03-08 09:09:00,
2013-03-08 03:14:00,46.2,26.6,30.09,SSE,158,6.0,8.1,46,0.00,,---,0.00,VWS V14.01,2013-03-08 09:14:00,
2013-03-08 03:20:00,46.0,27.0,30.09,SSW,202,3.4,4.7,47,0.00,,---,0.00,VWS V14.01,2013-03-08 09:20:00,
2013-03-08 03:26:00,46.2,27.1,30.09,ESE,112,4.3,8.5,47,0.00,,---,0.00,VWS V14.01,2013-03-08 09:26:00,
2013-03-08 03:31:00,46.2,27.1,30.09,SE,135,4.3,4.3,47,0.00,,---,0.00,VWS V14.01,2013-03-08 09:31:00,
2013-03-08 03:37:00,46.2,27.1,30.09,South,180,5.6,5.6,47,0.00,,---,0.00,VWS V14.01,2013-03-08 09:37:00,
2013-03-08 03:42:00,46.2,27.1,30.06,SE,135,3.6,6.5,47,0.00,,---,0.00,VWS V14.01,2013-03-08 09:42:00,
2013-03-08 03:48:00,46.6,27.5,30.06,SSE,158,3.6,6.3,47,0.00,,---,0.00,VWS V14.01,2013-03-08 09:48:00,
2013-03-08 03:54:00,46.6,27.5,30.06,SSE,158,4.3,6.0,47,0.00,,---,0.00,VWS V14.01,2013-03-08 09:54:00,
2013-03-08 03:59:00,46.6,27.5,30.09,SE,135,6.0,8.7,47,0.00,,---,0.00,VWS V14.01,2013-03-08 09:59:00,
2013-03-08 04:04:00,46.6,27.5,30.09,South,180,4.0,4.0,47,0.00,,---,0.00,VWS V14.01,2013-03-08 10:04:00,
2013-03-08 04:10:00,46.9,27.8,30.09,SE,135,8.1,10.5,47,0.00,,---,0.00,VWS V14.01,2013-03-08 10:10:00,
2013-03-08 04:15:00,47.1,27.9,30.09,SE,135,3.6,8.7,47,0.00,,---,0.00,VWS V14.01,2013-03-08 10:15:00,
2013-03-08 04:21:00,47.3,28.1,30.09,South,180,3.8,5.6,47,0.00,,---,0.00,VWS V14.01,2013-03-08 10:21:00,
2013-03-08 04:26:00,47.3,28.1,30.09,ESE,112,4.3,8.1,47,0.00,,---,0.00,VWS V14.01,2013-03-08 10:26:00,
2013-03-08 04:31:00,47.3,28.1,30.09,SE,135,3.1,10.1,47,0.00,,---,0.00,VWS V14.01,2013-03-08 10:31:00,
2013-03-08 04:37:00,47.3,28.1,30.09,SSE,158,6.5,7.6,47,0.00,,---,0.00,VWS V14.01,2013-03-08 10:37:00,
2013-03-08 04:43:00,47.3,28.1,30.06,ESE,112,2.9,4.0,47,0.00,,---,0.00,VWS V14.01,2013-03-08 10:43:00,
2013-03-08 04:48:00,47.3,28.1,30.06,SE,135,3.4,6.0,47,0.00,,---,0.00,VWS V14.01,2013-03-08 10:48:00,
2013-03-08 04:54:00,47.5,28.3,30.06,SE,135,5.8,8.1,47,0.00,,---,0.00,VWS V14.01,2013-03-08 10:54:00,
2013-03-08 04:59:00,47.7,28.4,30.09,SSE,158,3.8,6.0,47,0.00,,---,0.00,VWS V14.01,2013-03-08 10:59:00,
2013-03-08 05:04:00,47.8,28.6,30.09,South,180,7.4,7.4,47,0.00,,---,0.00,VWS V14.01,2013-03-08 11:04:00,
2013-03-08 05:09:00,47.8,28.1,30.09,South,180,5.4,5.8,46,0.00,,---,0.00,VWS V14.01,2013-03-08 11:09:00,
2013-03-08 05:15:00,48.2,28.4,30.09,South,180,6.3,7.6,46,0.00,,---,0.00,VWS V14.01,2013-03-08 11:15:00,
2013-03-08 05:20:00,48.2,28.4,30.09,South,180,6.9,10.1,46,0.00,,---,0.00,VWS V14.01,2013-03-08 11:20:00,
2013-03-08 05:26:00,48.2,28.4,30.09,SSE,158,3.1,3.1,46,0.00,,---,0.00,VWS V14.01,2013-03-08 11:26:00,
2013-03-08 05:31:00,48.4,28.6,30.09,SE,135,6.3,6.5,46,0.00,,---,0.00,VWS V14.01,2013-03-08 11:31:00,
2013-03-08 05:37:00,48.4,28.6,30.09,SSE,158,5.8,8.1,46,0.00,,---,0.00,VWS V14.01,2013-03-08 11:37:00,
2013-03-08 05:43:00,48.6,28.7,30.09,SSW,202,7.4,7.4,46,0.00,,---,0.00,VWS V14.01,2013-03-08 11:43:00,
2013-03-08 05:48:00,48.6,28.7,30.09,SSE,158,4.7,9.0,46,0.00,,---,0.00,VWS V14.01,2013-03-08 11:48:00,
2013-03-08 05:54:00,48.6,28.7,30.09,SSE,158,5.4,6.3,46,0.00,,---,0.00,VWS V14.01,2013-03-08 11:54:00,
2013-03-08 05:59:00,48.6,28.7,30.09,South,180,7.8,9.8,46,0.00,,---,0.00,VWS V14.01,2013-03-08 11:59:00,
2013-03-08 06:05:00,48.6,28.7,30.09,SSE,158,8.1,8.1,46,0.00,,---,0.00,VWS V14.01,2013-03-08 12:05:00,
2013-03-08 06:11:00,48.6,28.7,30.09,SSE,158,6.5,6.5,46,0.00,,---,0.00,VWS V14.01,2013-03-08 12:11:00,
2013-03-08 06:16:00,48.7,28.9,30.06,SSE,158,15.7,15.7,46,0.00,,---,0.00,VWS V14.01,2013-03-08 12:16:00,
2013-03-08 06:22:00,48.7,28.9,30.06,South,180,10.1,10.1,46,0.00,,---,0.00,VWS V14.01,2013-03-08 12:22:00,
2013-03-08 06:27:00,48.7,28.9,30.09,ESE,112,2.7,7.6,46,0.00,,---,0.00,VWS V14.01,2013-03-08 12:27:00,
2013-03-08 06:33:00,48.6,28.7,30.09,SSE,158,5.4,8.7,46,0.00,,---,0.00,VWS V14.01,2013-03-08 12:33:00,
2013-03-08 06:39:00,48.6,28.7,30.09,SE,135,5.8,7.8,46,0.00,,---,0.00,VWS V14.01,2013-03-08 12:39:00,
2013-03-08 06:45:00,48.6,28.7,30.09,SE,135,6.5,9.8,46,0.00,,---,0.00,VWS V14.01,2013-03-08 12:45:00,
2013-03-08 06:50:00,48.4,28.6,30.09,South,180,5.4,7.4,46,0.00,,---,0.00,VWS V14.01,2013-03-08 12:50:00,
2013-03-08 06:55:00,48.4,29.1,30.09,SSE,158,10.3,11.0,47,0.00,,---,0.00,VWS V14.01,2013-03-08 12:55:00,
2013-03-08 07:01:00,48.0,28.8,30.09,SSE,158,7.2,7.2,47,0.00,,---,0.00,VWS V14.01,2013-03-08 13:01:00,
2013-03-08 07:06:00,47.5,28.3,30.09,SSE,158,8.1,10.5,47,0.00,,---,0.00,VWS V14.01,2013-03-08 13:06:00,
2013-03-08 07:11:00,47.3,28.6,30.09,SSE,158,5.4,7.2,48,0.00,,---,0.00,VWS V14.01,2013-03-08 13:11:00,
2013-03-08 07:16:00,46.9,28.3,30.06,SE,135,7.4,7.4,48,0.00,,---,0.00,VWS V14.01,2013-03-08 13:16:00,
2013-03-08 07:21:00,46.9,28.3,30.06,SSE,158,9.2,11.0,48,0.00,,---,0.00,VWS V14.01,2013-03-08 13:21:00,
2013-03-08 07:27:00,46.9,28.3,30.09,SSE,158,7.2,13.0,48,0.00,,---,0.00,VWS V14.01,2013-03-08 13:27:00,
2013-03-08 07:32:00,46.9,28.3,30.09,ESE,112,6.9,6.9,48,0.00,,---,0.00,VWS V14.01,2013-03-08 13:32:00,
2013-03-08 07:37:00,47.1,28.5,30.09,SSE,158,5.6,7.6,48,0.00,,---,0.00,VWS V14.01,2013-03-08 13:37:00,
2013-03-08 07:43:00,47.3,28.6,30.09,ESE,112,9.2,10.5,48,0.00,,---,0.00,VWS V14.01,2013-03-08 13:43:00,
2013-03-08 07:49:00,47.5,28.8,30.09,ESE,112,3.8,7.6,48,0.00,,---,0.00,VWS V14.01,2013-03-08 13:49:00,
2013-03-08 07:54:00,47.8,29.1,30.09,SSE,158,7.4,9.8,48,0.00,,---,0.00,VWS V14.01,2013-03-08 13:54:00,
2013-03-08 08:00:00,48.0,29.3,30.12,South,180,7.2,13.0,48,0.00,,---,0.00,VWS V14.01,2013-03-08 14:00:00,
2013-03-08 08:05:00,48.2,29.5,30.12,SSE,158,6.0,7.4,48,0.00,,---,0.00,VWS V14.01,2013-03-08 14:05:00,
2013-03-08 08:11:00,48.2,29.5,30.12,ESE,112,6.3,7.4,48,0.00,,---,0.00,VWS V14.01,2013-03-08 14:11:00,
2013-03-08 08:17:00,48.6,29.3,30.12,SSE,158,7.4,7.4,47,0.00,,---,0.00,VWS V14.01,2013-03-08 14:17:00,
2013-03-08 08:23:00,48.7,29.4,30.12,SSE,158,4.0,5.4,47,0.00,,---,0.00,VWS V14.01,2013-03-08 14:23:00,
2013-03-08 08:28:00,48.9,29.6,30.12,SE,135,4.7,7.2,47,0.00,,---,0.00,VWS V14.01,2013-03-08 14:28:00,
2013-03-08 08:33:00,49.5,30.1,30.12,South,180,6.5,6.7,47,0.00,,---,0.00,VWS V14.01,2013-03-08 14:33:00,
2013-03-08 08:39:00,50.2,30.8,30.12,South,180,9.8,9.8,47,0.00,,---,0.00,VWS V14.01,2013-03-08 14:39:00,
2013-03-08 08:45:00,50.4,30.4,30.12,SSE,158,8.1,9.2,46,0.00,,---,0.00,VWS V14.01,2013-03-08 14:45:00,
2013-03-08 08:50:00,50.4,30.4,30.12,SSE,158,8.7,12.3,46,0.00,,---,0.00,VWS V14.01,2013-03-08 14:50:00,
2013-03-08 08:56:00,50.4,30.9,30.12,SSE,158,11.0,14.3,47,0.00,,---,0.00,VWS V14.01,2013-03-08 14:56:00,
2013-03-08 09:01:00,50.4,30.9,30.09,SSW,202,4.9,7.4,47,0.00,,---,0.00,VWS V14.01,2013-03-08 15:01:00,
2013-03-08 09:07:00,50.4,30.9,30.09,SSE,158,3.6,6.3,47,0.00,,---,0.00,VWS V14.01,2013-03-08 15:07:00,
2013-03-08 09:14:00,50.5,31.1,30.12,South,180,8.1,8.1,47,0.00,,---,0.00,VWS V14.01,2013-03-08 15:14:00,
2013-03-08 09:20:00,50.7,31.2,30.12,SSE,158,6.5,6.5,47,0.00,,---,0.00,VWS V14.01,2013-03-08 15:20:00,
2013-03-08 09:25:00,50.9,31.4,30.12,SSE,158,6.5,12.3,47,0.00,,---,0.00,VWS V14.01,2013-03-08 15:25:00,
2013-03-08 09:31:00,51.3,31.7,30.09,SSE,158,10.5,12.5,47,0.00,,---,0.00,VWS V14.01,2013-03-08 15:31:00,
2013-03-08 09:36:00,51.4,31.9,30.09,SSW,202,3.8,10.5,47,0.00,,---,0.00,VWS V14.01,2013-03-08 15:36:00,
2013-03-08 09:42:00,51.6,32.1,30.09,South,180,7.8,9.2,47,0.00,,---,0.00,VWS V14.01,2013-03-08 15:42:00,
2013-03-08 09:48:00,51.6,32.6,30.09,South,180,4.9,12.1,48,0.00,,---,0.00,VWS V14.01,2013-03-08 15:48:00,
2013-03-08 09:54:00,51.8,32.2,30.09,SSW,202,7.4,10.1,47,0.00,,---,0.00,VWS V14.01,2013-03-08 15:54:00,
2013-03-08 09:59:00,52.0,32.4,30.09,SE,135,16.8,18.1,47,0.00,,---,0.00,VWS V14.01,2013-03-08 15:59:00,
2013-03-08 10:04:00,52.2,32.6,30.09,South,180,5.4,11.0,47,0.00,,---,0.00,VWS V14.01,2013-03-08 16:04:00,
2013-03-08 10:10:00,52.5,33.4,30.09,South,180,6.5,7.6,48,0.00,,---,0.00,VWS V14.01,2013-03-08 16:10:00,
2013-03-08 10:15:00,52.9,33.2,30.09,South,180,3.1,12.8,47,0.00,,---,0.00,VWS V14.01,2013-03-08 16:15:00,
2013-03-08 10:20:00,53.2,34.1,30.09,SE,135,8.7,10.5,48,0.00,,---,0.00,VWS V14.01,2013-03-08 16:20:00,
2013-03-08 10:25:00,53.6,33.9,30.09,South,180,7.4,11.2,47,0.00,,---,0.00,VWS V14.01,2013-03-08 16:25:00,
2013-03-08 10:31:00,54.1,34.9,30.09,South,180,4.5,7.6,48,0.00,,---,0.00,VWS V14.01,2013-03-08 16:31:00,
2013-03-08 10:36:00,54.1,34.9,30.09,SE,135,6.5,14.8,48,0.00,,---,0.00,VWS V14.01,2013-03-08 16:36:00,
2013-03-08 10:41:00,54.9,35.6,30.09,South,180,5.4,13.2,48,0.00,,---,0.00,VWS V14.01,2013-03-08 16:41:00,
2013-03-08 10:46:00,55.8,35.8,30.09,SE,135,9.6,10.7,47,0.00,,---,0.00,VWS V14.01,2013-03-08 16:46:00,
2013-03-08 10:52:00,56.5,36.5,30.09,South,180,9.8,15.2,47,0.00,,---,0.00,VWS V14.01,2013-03-08 16:52:00,
2013-03-08 10:58:00,57.0,37.0,30.09,South,180,8.5,11.9,47,0.00,,---,0.00,VWS V14.01,2013-03-08 16:58:00,
2013-03-08 11:03:00,57.9,37.8,30.09,South,180,4.0,6.5,47,0.00,,---,0.00,VWS V14.01,2013-03-08 17:03:00,
2013-03-08 11:08:00,57.6,37.5,30.09,SSW,202,4.7,6.0,47,0.00,,---,0.00,VWS V14.01,2013-03-08 17:08:00,
2013-03-08 11:14:00,57.6,37.5,30.09,SSE,158,7.6,14.8,47,0.00,,---,0.00,VWS V14.01,2013-03-08 17:14:00,
2013-03-08 11:19:00,58.1,38.0,30.09,SSE,158,7.8,10.5,47,0.00,,---,0.00,VWS V14.01,2013-03-08 17:19:00,
2013-03-08 11:24:00,58.8,38.7,30.09,South,180,6.0,15.2,47,0.00,,---,0.00,VWS V14.01,2013-03-08 17:24:00,
2013-03-08 11:29:00,59.2,38.4,30.06,SSW,202,3.8,13.0,46,0.00,,---,0.00,VWS V14.01,2013-03-08 17:29:00,
2013-03-08 11:34:00,60.1,39.2,30.06,South,180,6.7,17.0,46,0.00,,---,0.00,VWS V14.01,2013-03-08 17:34:00,
2013-03-08 11:40:00,60.1,39.2,30.06,SSW,202,7.6,7.6,46,0.00,,---,0.00,VWS V14.01,2013-03-08 17:40:00,
2013-03-08 11:45:00,59.0,38.8,30.09,SSW,202,10.3,13.2,47,0.00,,---,0.00,VWS V14.01,2013-03-08 17:45:00,
2013-03-08 11:51:00,59.2,39.0,30.09,SSE,158,14.8,14.8,47,0.00,,---,0.00,VWS V14.01,2013-03-08 17:51:00,
2013-03-08 11:56:00,59.2,39.0,30.09,South,180,7.8,12.8,47,0.00,,---,0.00,VWS V14.01,2013-03-08 17:56:00,
2013-03-08 12:01:00,59.0,38.8,30.09,SSE,158,5.8,13.4,47,0.00,,---,0.00,VWS V14.01,2013-03-08 18:01:00,
2013-03-08 12:06:00,59.5,39.3,30.09,SSW,202,9.8,10.7,47,0.00,,---,0.00,VWS V14.01,2013-03-08 18:06:00,
2013-03-08 12:12:00,59.9,39.6,30.06,South,180,9.8,9.8,47,0.00,,---,0.00,VWS V14.01,2013-03-08 18:12:00,
2013-03-08 12:17:00,59.4,39.2,30.06,SSW,202,6.7,12.8,47,0.00,,---,0.00,VWS V14.01,2013-03-08 18:17:00,
2013-03-08 12:23:00,59.4,39.2,30.06,SSE,158,5.8,8.1,47,0.00,,---,0.00,VWS V14.01,2013-03-08 18:23:00,
2013-03-08 12:29:00,59.4,39.7,30.06,South,180,6.0,7.4,48,0.00,,---,0.00,VWS V14.01,2013-03-08 18:29:00,
2013-03-08 12:35:00,59.5,39.8,30.06,South,180,12.5,12.5,48,0.00,,---,0.00,VWS V14.01,2013-03-08 18:35:00,
2013-03-08 12:40:00,59.2,39.5,30.06,SSW,202,12.1,13.0,48,0.00,,---,0.00,VWS V14.01,2013-03-08 18:40:00,
2013-03-08 12:45:00,59.2,40.0,30.03,SSE,158,3.4,8.7,49,0.00,,---,0.00,VWS V14.01,2013-03-08 18:45:00,
2013-03-08 12:50:00,59.5,40.4,30.03,SSE,158,6.0,12.3,49,0.00,,---,0.00,VWS V14.01,2013-03-08 18:50:00,
2013-03-08 12:56:00,59.4,40.7,30.03,South,180,16.3,16.3,50,0.00,,---,0.00,VWS V14.01,2013-03-08 18:56:00,
2013-03-08 13:01:00,58.8,40.8,30.03,South,180,6.0,10.7,51,0.00,,---,0.00,VWS V14.01,2013-03-08 19:01:00,
2013-03-08 13:06:00,59.0,40.9,30.03,South,180,5.4,9.0,51,0.00,,---,0.00,VWS V14.01,2013-03-08 19:06:00,
2013-03-08 13:11:00,59.4,41.8,30.03,South,180,8.7,8.7,52,0.00,,---,0.00,VWS V14.01,2013-03-08 19:11:00,
2013-03-08 13:16:00,59.5,41.9,30.03,South,180,4.0,6.3,52,0.00,,---,0.00,VWS V14.01,2013-03-08 19:16:00,
2013-03-08 13:22:00,59.4,41.8,30.03,South,180,10.5,10.5,52,0.00,,---,0.00,VWS V14.01,2013-03-08 19:22:00,
2013-03-08 13:27:00,59.7,42.6,30.03,SSE,158,5.6,7.4,53,0.00,,---,0.00,VWS V14.01,2013-03-08 19:27:00,
2013-03-08 13:32:00,59.4,42.2,30.03,SSW,202,7.8,13.2,53,0.00,,---,0.00,VWS V14.01,2013-03-08 19:32:00,
2013-03-08 13:37:00,59.5,42.4,30.03,SSW,202,9.6,10.1,53,0.00,,---,0.00,VWS V14.01,2013-03-08 19:37:00,
2013-03-08 13:42:00,60.1,42.9,30.00,South,180,7.4,8.7,53,0.00,,---,0.00,VWS V14.01,2013-03-08 19:42:00,
2013-03-08 13:47:00,60.4,42.8,30.00,SE,135,5.4,8.5,52,0.00,,---,0.00,VWS V14.01,2013-03-08 19:47:00,
2013-03-08 13:52:00,61.0,42.7,30.00,SSE,158,6.5,8.7,51,0.00,,---,0.00,VWS V14.01,2013-03-08 19:52:00,
2013-03-08 13:57:00,61.5,43.2,30.00,SSE,158,10.7,10.7,51,0.00,,---,0.00,VWS V14.01,2013-03-08 19:57:00,
2013-03-08 14:02:00,61.9,43.1,30.00,SSE,158,9.8,12.5,50,0.00,,---,0.00,VWS V14.01,2013-03-08 20:02:00,
2013-03-08 14:08:00,61.5,42.7,30.00,South,180,12.5,17.5,50,0.00,,---,0.00,VWS V14.01,2013-03-08 20:08:00,
2013-03-08 14:14:00,61.2,42.9,30.00,South,180,5.4,14.8,51,0.00,,---,0.00,VWS V14.01,2013-03-08 20:14:00,
2013-03-08 14:19:00,61.0,43.2,30.00,SSE,158,8.1,11.0,52,0.00,,---,0.00,VWS V14.01,2013-03-08 20:19:00,
2013-03-08 14:25:00,61.2,43.4,30.00,SSE,158,10.1,10.1,52,0.00,,---,0.00,VWS V14.01,2013-03-08 20:25:00,
2013-03-08 14:30:00,61.5,44.2,30.00,South,180,7.6,11.0,53,0.00,,---,0.00,VWS V14.01,2013-03-08 20:30:00,
2013-03-08 14:36:00,61.3,43.6,30.00,South,180,10.1,10.3,52,0.00,,---,0.00,VWS V14.01,2013-03-08 20:36:00,
2013-03-08 14:42:00,61.3,44.1,30.00,South,180,8.7,11.0,53,0.00,,---,0.00,VWS V14.01,2013-03-08 20:42:00,
2013-03-08 14:47:00,61.5,44.2,30.00,SE,135,7.8,9.6,53,0.00,,---,0.00,VWS V14.01,2013-03-08 20:47:00,
2013-03-08 14:53:00,61.2,43.4,30.00,South,180,6.0,8.1,52,0.00,,---,0.00,VWS V14.01,2013-03-08 20:53:00,
2013-03-08 14:58:00,61.0,43.8,29.97,SSE,158,7.8,15.4,53,0.00,,---,0.00,VWS V14.01,2013-03-08 20:58:00,
2013-03-08 15:03:00,60.8,43.6,29.97,SSE,158,8.1,17.2,53,0.00,,---,0.00,VWS V14.01,2013-03-08 21:03:00,
2013-03-08 15:08:00,60.8,43.6,29.97,East,90,7.4,9.0,53,0.00,,---,0.00,VWS V14.01,2013-03-08 21:08:00,
2013-03-08 15:14:00,60.3,44.0,29.97,South,180,15.7,15.7,55,0.00,,---,0.00,VWS V14.01,2013-03-08 21:14:00,
2013-03-08 15:19:00,60.1,43.9,29.97,SSE,158,11.9,11.9,55,0.00,,---,0.00,VWS V14.01,2013-03-08 21:19:00,
2013-03-08 15:24:00,59.9,43.7,29.97,South,180,8.5,12.5,55,0.00,,---,0.00,VWS V14.01,2013-03-08 21:24:00,
2013-03-08 15:29:00,60.1,43.9,29.97,SSW,202,12.3,12.3,55,0.00,,---,0.00,VWS V14.01,2013-03-08 21:29:00,
2013-03-08 15:35:00,59.7,43.5,29.97,South,180,3.1,7.4,55,0.00,,---,0.00,VWS V14.01,2013-03-08 21:35:00,
2013-03-08 15:40:00,59.5,43.8,29.97,SSE,158,4.3,8.5,56,0.00,,---,0.00,VWS V14.01,2013-03-08 21:40:00,
2013-03-08 15:45:00,59.5,43.8,29.97,SSE,158,8.5,12.8,56,0.00,,---,0.00,VWS V14.01,2013-03-08 21:45:00,
2013-03-08 15:50:00,58.8,44.1,29.97,SSE,158,6.9,17.0,58,0.00,,---,0.00,VWS V14.01,2013-03-08 21:50:00,
2013-03-08 15:56:00,58.8,44.1,29.97,SSW,202,7.8,7.8,58,0.00,,---,0.00,VWS V14.01,2013-03-08 21:56:00,
2013-03-08 16:01:00,58.5,44.2,29.97,SSE,158,6.5,10.5,59,0.00,,---,0.00,VWS V14.01,2013-03-08 22:01:00,
2013-03-08 16:06:00,58.1,44.3,29.97,SSE,158,7.8,12.3,60,0.00,,---,0.00,VWS V14.01,2013-03-08 22:06:00,
2013-03-08 16:12:00,57.7,44.4,29.97,South,180,6.0,14.5,61,0.00,,---,0.00,VWS V14.01,2013-03-08 22:12:00,
2013-03-08 16:17:00,57.4,44.5,29.97,SSE,158,11.9,11.9,62,0.00,,---,0.00,VWS V14.01,2013-03-08 22:17:00,
2013-03-08 16:22:00,57.2,44.7,29.97,South,180,7.8,10.1,63,0.00,,---,0.00,VWS V14.01,2013-03-08 22:22:00,
2013-03-08 16:27:00,56.8,45.2,29.97,SSW,202,5.6,11.0,65,0.00,,---,0.00,VWS V14.01,2013-03-08 22:27:00,
2013-03-08 16:32:00,56.5,45.7,29.97,SSW,202,5.8,10.5,67,0.00,,---,0.00,VWS V14.01,2013-03-08 22:32:00,
2013-03-08 16:38:00,55.9,44.8,29.97,SSE,158,6.3,7.4,66,0.00,,---,0.00,VWS V14.01,2013-03-08 22:38:00,
2013-03-08 16:43:00,55.8,44.2,29.97,SSE,158,12.1,12.1,65,0.00,,---,0.00,VWS V14.01,2013-03-08 22:43:00,
2013-03-08 16:48:00,55.8,44.2,29.97,South,180,4.0,7.4,65,0.00,,---,0.00,VWS V14.01,2013-03-08 22:48:00,
2013-03-08 16:53:00,55.8,44.2,29.97,South,180,5.8,6.3,65,0.00,,---,0.00,VWS V14.01,2013-03-08 22:53:00,
2013-03-08 16:59:00,55.8,44.2,29.97,South,180,6.7,12.1,65,0.00,,---,0.00,VWS V14.01,2013-03-08 22:59:00,
2013-03-08 17:04:00,55.9,44.4,29.97,SSE,158,4.9,9.8,65,0.00,,---,0.00,VWS V14.01,2013-03-08 23:04:00,
2013-03-08 17:09:00,55.9,44.0,29.97,South,180,9.8,9.8,64,0.00,,---,0.00,VWS V14.01,2013-03-08 23:09:00,
2013-03-08 17:14:00,55.9,44.0,29.97,SSE,158,3.8,13.2,64,0.00,,---,0.00,VWS V14.01,2013-03-08 23:14:00,
2013-03-08 17:21:00,55.9,44.0,29.97,SSE,158,7.2,9.4,64,0.00,,---,0.00,VWS V14.01,2013-03-08 23:21:00,
2013-03-08 17:27:00,55.9,44.0,29.97,SSW,202,8.1,9.4,64,0.00,,---,0.00,VWS V14.01,2013-03-08 23:27:00,
2013-03-08 17:32:00,55.9,44.0,29.97,SSE,158,7.4,12.1,64,0.00,,---,0.00,VWS V14.01,2013-03-08 23:32:00,
2013-03-08 17:37:00,55.8,44.2,29.97,South,180,6.0,7.4,65,0.00,,---,0.00,VWS V14.01,2013-03-08 23:37:00,
2013-03-08 17:42:00,55.6,44.0,29.97,SSE,158,6.7,11.2,65,0.00,,---,0.00,VWS V14.01,2013-03-08 23:42:00,
2013-03-08 17:48:00,55.6,44.4,29.97,South,180,3.1,12.3,66,0.00,,---,0.00,VWS V14.01,2013-03-08 23:48:00,
2013-03-08 17:53:00,55.6,44.4,29.97,South,180,6.3,9.8,66,0.00,,---,0.00,VWS V14.01,2013-03-08 23:53:00,
2013-03-08 17:59:00,55.4,44.2,29.97,West,270,5.6,9.8,66,0.00,,---,0.00,VWS V14.01,2013-03-08 23:59:00,
2013-03-08 18:05:00,55.2,44.9,29.97,South,180,10.1,10.1,68,0.00,,---,0.00,VWS V14.01,2013-03-09 00:05:00,
2013-03-08 18:10:00,55.2,45.2,29.97,SE,135,7.8,7.8,69,0.00,,---,0.00,VWS V14.01,2013-03-09 00:10:00,
2013-03-08 18:15:00,55.2,45.6,29.97,SSE,158,5.8,6.0,70,0.00,,---,0.00,VWS V14.01,2013-03-09 00:15:00,
2013-03-08 18:21:00,55.0,45.5,29.97,SSW,202,2.9,7.8,70,0.00,,---,0.00,VWS V14.01,2013-03-09 00:21:00,
2013-03-08 18:26:00,54.9,45.3,29.97,SSW,202,6.0,10.7,70,0.00,,---,0.00,VWS V14.01,2013-03-09 00:26:00,
2013-03-08 18:31:00,54.5,45.3,29.97,ESE,112,9.6,9.6,71,0.00,,---,0.00,VWS V14.01,2013-03-09 00:31:00,
2013-03-08 18:36:00,54.3,45.1,29.97,SSE,158,7.4,13.6,71,0.00,,---,0.00,VWS V14.01,2013-03-09 00:36:00,
2013-03-08 18:42:00,54.3,45.1,29.97,South,180,6.3,6.9,71,0.00,,---,0.00,VWS V14.01,2013-03-09 00:42:00,
2013-03-08 18:47:00,54.1,45.3,29.97,South,180,8.1,19.2,72,0.00,,---,0.00,VWS V14.01,2013-03-09 00:47:00,
2013-03-08 18:52:00,54.0,45.2,29.97,SE,135,8.1,9.4,72,0.00,,---,0.00,VWS V14.01,2013-03-09 00:52:00,
2013-03-08 18:57:00,53.8,45.0,29.94,SSE,158,2.9,7.8,72,0.00,,---,0.00,VWS V14.01,2013-03-09 00:57:00,
2013-03-08 19:02:00,53.8,45.0,29.94,South,180,5.8,5.8,72,0.00,,---,0.00,VWS V14.01,2013-03-09 01:02:00,
2013-03-08 19:08:00,53.6,45.2,29.94,South,180,8.7,10.5,73,0.00,,---,0.00,VWS V14.01,2013-03-09 01:08:00,
2013-03-08 19:13:00,53.6,45.2,29.97,South,180,8.7,11.9,73,0.00,,---,0.00,VWS V14.01,2013-03-09 01:13:00,
2013-03-08 19:19:00,53.6,45.5,29.97,SSE,158,3.8,16.6,74,0.00,,---,0.00,VWS V14.01,2013-03-09 01:19:00,
2013-03-08 19:24:00,53.8,45.7,29.97,South,180,9.8,10.3,74,0.00,,---,0.00,VWS V14.01,2013-03-09 01:24:00,
2013-03-08 19:29:00,53.8,45.7,29.94,South,180,3.6,6.3,74,0.00,,---,0.00,VWS V14.01,2013-03-09 01:29:00,
2013-03-08 19:34:00,53.8,45.7,29.94,SSW,202,7.4,12.3,74,0.00,,---,0.00,VWS V14.01,2013-03-09 01:34:00,
2013-03-08 19:40:00,54.0,45.5,29.94,South,180,9.8,9.8,73,0.00,,---,0.00,VWS V14.01,2013-03-09 01:40:00,
2013-03-08 19:45:00,54.0,45.5,29.97,SSE,158,12.3,12.3,73,0.00,,---,0.00,VWS V14.01,2013-03-09 01:45:00,
2013-03-08 19:51:00,54.1,45.7,29.97,East,90,12.1,12.1,73,0.00,,---,0.00,VWS V14.01,2013-03-09 01:51:00,
2013-03-08 19:57:00,54.1,45.3,29.94,SSE,158,10.3,10.3,72,0.00,,---,0.00,VWS V14.01,2013-03-09 01:57:00,
2013-03-08 20:02:00,54.0,45.2,29.94,South,180,8.7,8.7,72,0.00,,---,0.00,VWS V14.01,2013-03-09 02:02:00,
2013-03-08 20:08:00,54.0,45.2,29.94,SSW,202,12.1,14.5,72,0.00,,---,0.00,VWS V14.01,2013-03-09 02:08:00,
2013-03-08 20:13:00,54.0,45.2,29.94,South,180,11.4,16.6,72,0.00,,---,0.00,VWS V14.01,2013-03-09 02:13:00,
2013-03-08 20:18:00,54.0,45.2,29.94,South,180,8.1,11.9,72,0.00,,---,0.00,VWS V14.01,2013-03-09 02:18:00,
2013-03-08 20:23:00,54.1,45.7,29.94,South,180,10.7,10.7,73,0.00,,---,0.00,VWS V14.01,2013-03-09 02:23:00,
2013-03-08 20:29:00,54.1,45.3,29.97,South,180,8.7,15.2,72,0.00,,---,0.00,VWS V14.01,2013-03-09 02:29:00,
2013-03-08 20:34:00,54.1,45.7,29.97,South,180,10.7,13.4,73,0.00,,---,0.00,VWS V14.01,2013-03-09 02:34:00,
2013-03-08 20:39:00,54.1,45.3,29.97,South,180,6.3,20.1,72,0.00,,---,0.00,VWS V14.01,2013-03-09 02:39:00,
2013-03-08 20:44:00,54.1,45.3,29.97,SSW,202,12.5,12.8,72,0.00,,---,0.00,VWS V14.01,2013-03-09 02:44:00,
2013-03-08 20:50:00,54.1,45.3,29.97,South,180,9.6,9.6,72,0.00,,---,0.00,VWS V14.01,2013-03-09 02:50:00,
2013-03-08 20:55:00,54.1,45.3,29.97,South,180,7.2,7.4,72,0.00,,---,0.00,VWS V14.01,2013-03-09 02:55:00,
2013-03-08 21:00:00,54.1,45.3,29.97,South,180,5.8,10.3,72,0.00,,---,0.00,VWS V14.01,2013-03-09 03:00:00,
2013-03-08 21:05:00,54.1,45.0,29.97,South,180,6.5,12.5,71,0.00,,---,0.00,VWS V14.01,2013-03-09 03:05:00,
2013-03-08 21:11:00,54.3,45.1,29.97,SSW,202,13.2,13.2,71,0.00,,---,0.00,VWS V14.01,2013-03-09 03:11:00,
2013-03-08 21:16:00,54.1,44.6,29.97,South,180,8.1,9.4,70,0.00,,---,0.00,VWS V14.01,2013-03-09 03:16:00,
2013-03-08 21:21:00,54.1,44.6,29.97,South,180,9.2,9.4,70,0.00,,---,0.00,VWS V14.01,2013-03-09 03:21:00,
2013-03-08 21:26:00,54.1,44.2,29.97,SSW,202,7.4,11.0,69,0.00,,---,0.00,VWS V14.01,2013-03-09 03:26:00,
2013-03-08 21:32:00,54.1,43.8,29.97,South,180,5.8,11.9,68,0.00,,---,0.00,VWS V14.01,2013-03-09 03:32:00,
2013-03-08 21:37:00,54.1,43.8,29.97,South,180,5.6,11.4,68,0.00,,---,0.00,VWS V14.01,2013-03-09 03:37:00,
2013-03-08 21:42:00,54.1,43.8,29.97,South,180,7.2,9.8,68,0.00,,---,0.00,VWS V14.01,2013-03-09 03:42:00,
2013-03-08 21:47:00,54.1,43.8,29.97,South,180,7.6,14.3,68,0.00,,---,0.00,VWS V14.01,2013-03-09 03:47:00,
2013-03-08 21:53:00,54.1,43.8,29.97,South,180,6.3,12.5,68,0.00,,---,0.00,VWS V14.01,2013-03-09 03:53:00,
2013-03-08 21:58:00,54.1,43.8,29.97,SSE,158,8.1,9.6,68,0.00,,---,0.00,VWS V14.01,2013-03-09 03:58:00,
2013-03-08 22:03:00,54.1,43.8,29.97,SSE,158,6.0,9.6,68,0.00,,---,0.00,VWS V14.01,2013-03-09 04:03:00,
2013-03-08 22:08:00,54.1,43.8,29.97,SSW,202,10.1,10.7,68,0.00,,---,0.00,VWS V14.01,2013-03-09 04:08:00,
2013-03-08 22:14:00,54.1,43.8,29.97,SSE,158,15.2,15.2,68,0.00,,---,0.00,VWS V14.01,2013-03-09 04:14:00,
2013-03-08 22:19:00,54.1,43.8,29.97,SSW,202,7.8,10.7,68,0.00,,---,0.00,VWS V14.01,2013-03-09 04:19:00,
2013-03-08 22:24:00,54.1,43.8,29.97,South,180,4.9,9.4,68,0.00,,---,0.00,VWS V14.01,2013-03-09 04:24:00,
2013-03-08 22:29:00,54.1,43.8,29.94,SSE,158,4.3,5.8,68,0.00,,---,0.00,VWS V14.01,2013-03-09 04:29:00,
2013-03-08 22:35:00,54.1,43.8,29.94,SSW,202,5.8,8.5,68,0.00,,---,0.00,VWS V14.01,2013-03-09 04:35:00,
2013-03-08 22:40:00,54.3,44.0,29.94,SE,135,10.7,10.7,68,0.00,,---,0.00,VWS V14.01,2013-03-09 04:40:00,
2013-03-08 22:45:00,54.3,44.0,29.91,South,180,7.8,8.7,68,0.00,,---,0.00,VWS V14.01,2013-03-09 04:45:00,
2013-03-08 22:50:00,54.3,44.0,29.91,South,180,3.8,7.6,68,0.00,,---,0.00,VWS V14.01,2013-03-09 04:50:00,
2013-03-08 22:56:00,54.3,44.4,29.91,South,180,6.0,20.1,69,0.00,,---,0.00,VWS V14.01,2013-03-09 04:56:00,
2013-03-08 23:00:00,54.3,44.4,29.94,South,180,9.2,9.2,69,0.00,,---,0.00,VWS V14.01,2013-03-09 05:00:00,
2013-03-08 23:02:00,54.3,44.4,29.94,SSE,158,6.5,10.5,69,0.00,,---,0.00,VWS V14.01,2013-03-09 05:02:00,
2013-03-08 23:06:00,54.5,44.9,29.94,SSW,202,7.4,7.4,70,0.00,,---,0.00,VWS V14.01,2013-03-09 05:06:00,
2013-03-08 23:08:00,54.5,44.9,29.94,South,180,10.1,11.0,70,0.00,,---,0.00,VWS V14.01,2013-03-09 05:08:00,
2013-03-08 23:13:00,54.5,44.9,29.94,SSW,202,7.2,13.9,70,0.00,,---,0.00,VWS V14.01,2013-03-09 05:13:00,
2013-03-08 23:18:00,54.7,45.1,29.94,East,90,3.6,8.5,70,0.00,,---,0.00,VWS V14.01,2013-03-09 05:18:00,
2013-03-08 23:24:00,54.9,45.3,29.94,SSW,202,6.5,10.5,70,0.00,,---,0.00,VWS V14.01,2013-03-09 05:24:00,
2013-03-08 23:29:00,54.9,44.9,29.97,SSE,158,4.9,10.7,69,0.00,,---,0.00,VWS V14.01,2013-03-09 05:29:00,
2013-03-08 23:35:00,54.9,44.9,29.97,SSE,158,8.5,9.4,69,0.00,,---,0.00,VWS V14.01,2013-03-09 05:35:00,
2013-03-08 23:41:00,55.0,45.1,29.97,South,180,9.4,12.1,69,0.00,,---,0.00,VWS V14.01,2013-03-09 05:41:00,
2013-03-08 23:46:00,55.0,44.7,29.94,SSW,202,5.6,8.7,68,0.00,,---,0.00,VWS V14.01,2013-03-09 05:46:00,
2013-03-08 23:52:00,55.0,44.7,29.94,SSW,202,10.3,13.0,68,0.00,,---,0.00,VWS V14.01,2013-03-09 05:52:00,
2013-03-08 23:57:00,55.0,44.7,29.94,SSW,202,8.7,10.1,68,0.00,,---,0.00,VWS V14.01,2013-03-09 05:57:00,